Walhalla, ND

7:57 AM CDT on August 23, 2017 (GMT -0500)
Walhalla

Weather History for K96D - January, 2013

Change the Weather History Date:

Wednesday, January 2, 2013

  Actual Average (KGAF) Record (KGAF)
Temperature  
Mean Temperature 18 °F -  
Max Temperature 32 °F 14 °F 45 °F (1964)
Min Temperature 3 °F -3 °F -31 °F (1968)
Degree Days  
Heating Degree Days 48    
Moisture  
Dew Point 12 °F    
Average Humidity 89    
Maximum Humidity 100    
Minimum Humidity 78    
Precipitation  
Precipitation 0.00 in - - ()
Sea Level Pressure  
Sea Level Pressure 29.99 in    
Wind  
Wind Speed 11 mph (NW)    
Max Wind Speed 21 mph    
Max Gust Speed 28 mph    
Visibility 10 miles    
Events Snow    
Averages and records for this station are not official NWS values.
T = Trace of Precipitation, MM = Missing Value Source: NWS Daily Summary

Daily Weather History Graph

Daily Weather History Graph

Search for Another Location

Airport or City:

Trip Planner

Search our weather history database for the weather conditions in past years. The results will help you decide how hot, cold, wet, or windy it might be!

Date:

Astronomy

Jan. 02, 2013 Rise Set
Actual Time 8:25 AM CST 4:46 PM CST
Civil Twilight 7:48 AM CST 5:23 PM CST
Nautical Twilight 7:08 AM CST 6:03 PM CST
Astronomical Twilight 6:29 AM CST 6:42 PM CST
Moon 10:52 PM CST (1/2) 10:39 AM CST (1/2)
Length of Visible Light 9h 35m
Length of Day
8h 21m
Waning Gibbous, 75% of the Moon is Illuminated
Jan 2
Waning Gibbous
Jan 4
Last Quarter
Jan 11
New
Jan 18
First Quarter
Jan 26
Full

Hourly Weather History & Observations

Time (CST) Temp. Windchill Dew Point Humidity Pressure Visibility Wind Dir Wind Speed Gust Speed Precip Events Conditions
12:15 AM 26.6 °F 21.2 °F 26.6 °F 100% 29.74 in 10.0 mi West 4.6 mph - N/A   Overcast
12:35 AM 26.6 °F 21.2 °F 26.6 °F 100% 29.74 in 10.0 mi West 4.6 mph - N/A   Overcast
12:55 AM 28.4 °F 24.6 °F 26.6 °F 93% 29.74 in 10.0 mi West 3.5 mph - N/A   Overcast
1:15 AM 28.4 °F 21.2 °F 26.6 °F 93% 29.73 in 10.0 mi West 6.9 mph - N/A   Overcast
1:35 AM 28.4 °F 19.7 °F 28.4 °F 100% 29.73 in 10.0 mi West 9.2 mph - N/A   Overcast
1:55 AM 28.4 °F 19.7 °F 28.4 °F 100% 29.72 in 10.0 mi West 9.2 mph - N/A   Overcast
2:15 AM 28.4 °F 19.7 °F 28.4 °F 100% 29.72 in 10.0 mi West 9.2 mph 16.1 mph N/A   Overcast
2:35 AM 28.4 °F 19.7 °F 28.4 °F 100% 29.73 in 10.0 mi West 9.2 mph - N/A   Overcast
2:55 AM 30.2 °F 21.9 °F 30.2 °F 100% 29.73 in 10.0 mi West 9.2 mph - N/A   Overcast
3:15 AM 30.2 °F 21.3 °F 28.4 °F 93% 29.73 in 10.0 mi West 10.4 mph 16.1 mph N/A   Overcast
3:35 AM 32.0 °F 23.6 °F 30.2 °F 93% 29.74 in 10.0 mi WNW 10.4 mph - N/A   Overcast
3:55 AM 30.2 °F 20.2 °F 30.2 °F 100% 29.74 in 10.0 mi NW 12.7 mph 21.9 mph N/A   Overcast
4:15 AM 30.2 °F 18.9 °F 28.4 °F 93% 29.74 in 10.0 mi NW 16.1 mph 24.2 mph N/A   Overcast
4:35 AM 28.4 °F 17.0 °F 26.6 °F 93% 29.75 in 8.0 mi NW 15.0 mph 25.3 mph N/A Snow Light Snow
4:55 AM 28.4 °F 15.4 °F 28.4 °F 100% 29.75 in 4.0 mi NW 19.6 mph 25.3 mph N/A Snow Light Snow
5:15 AM 26.6 °F 13.8 °F 26.6 °F 100% 29.78 in 2.5 mi NNW 17.3 mph 20.7 mph N/A Snow Light Snow
5:35 AM 24.8 °F 10.7 °F 24.8 °F 100% 29.79 in 5.0 mi NNW 19.6 mph - N/A   Overcast
6:15 AM 21.2 °F 5.6 °F 21.2 °F 100% 29.82 in 10.0 mi NNW 20.7 mph 27.6 mph N/A   Overcast
6:35 AM 19.4 °F 6.0 °F 19.4 °F 100% 29.83 in 10.0 mi NNW 13.8 mph 24.2 mph N/A   Overcast
6:55 AM 19.4 °F 4.1 °F 17.6 °F 93% 29.84 in 10.0 mi NNW 18.4 mph 25.3 mph N/A   Overcast
7:15 AM 17.6 °F 2.7 °F 15.8 °F 93% 29.85 in 10.0 mi NNW 16.1 mph - N/A   Overcast
7:35 AM 17.6 °F 3.2 °F 14.0 °F 86% 29.87 in 10.0 mi NNW 15.0 mph 23.0 mph N/A   Overcast
7:55 AM 15.8 °F 0.9 °F 14.0 °F 93% 29.87 in 10.0 mi NNW 15.0 mph 20.7 mph N/A   Overcast
8:15 AM 15.8 °F 2.7 °F 14.0 °F 93% 29.88 in 10.0 mi NNW 11.5 mph - N/A   Partly Cloudy
8:35 AM 14.0 °F 2.0 °F 12.2 °F 93% 29.89 in 10.0 mi NW 9.2 mph 17.3 mph N/A   Partly Cloudy
8:55 AM 14.0 °F 2.0 °F 12.2 °F 93% 29.90 in 10.0 mi NNW 9.2 mph - N/A   Scattered Clouds
9:15 AM 14.0 °F -0.8 °F 10.4 °F 86% 29.91 in 10.0 mi NNW 13.8 mph - N/A   Scattered Clouds
9:35 AM 14.0 °F 0.5 °F 10.4 °F 86% 29.92 in 10.0 mi NNW 11.5 mph - N/A   Scattered Clouds
9:55 AM 14.0 °F 0.5 °F 12.2 °F 93% 29.93 in 10.0 mi NNW 11.5 mph - N/A Snow Light Snow
10:15 AM 14.0 °F -1.4 °F 12.2 °F 93% 29.95 in 10.0 mi NNW 15.0 mph - N/A   Scattered Clouds
10:35 AM 14.0 °F -2.0 °F 10.4 °F 86% 29.96 in 10.0 mi NNW 16.1 mph 24.2 mph N/A   Scattered Clouds
10:55 AM 14.0 °F -2.5 °F 10.4 °F 86% 29.97 in 10.0 mi NNW 17.3 mph 21.9 mph N/A   Scattered Clouds
11:15 AM 14.0 °F -3.0 °F 8.6 °F 79% 29.98 in 10.0 mi NNW 18.4 mph 27.6 mph N/A Snow Light Snow
11:35 AM 12.2 °F -3.7 °F 8.6 °F 85% 29.99 in 10.0 mi NNW 15.0 mph 26.5 mph N/A Snow Light Snow
11:55 AM 12.2 °F -5.3 °F 6.8 °F 79% 30.00 in 10.0 mi NNW 18.4 mph 25.3 mph N/A   Scattered Clouds
12:15 PM 12.2 °F -4.3 °F 8.6 °F 85% 30.01 in 10.0 mi NNW 16.1 mph 23.0 mph N/A   Scattered Clouds
12:35 PM 10.4 °F -7.7 °F 6.8 °F 85% 30.01 in 10.0 mi North 18.4 mph 23.0 mph N/A Snow Light Snow
12:55 PM 10.4 °F -7.7 °F 6.8 °F 85% 30.02 in 10.0 mi NNW 18.4 mph 24.2 mph N/A   Mostly Cloudy
1:15 PM 10.4 °F -7.7 °F 6.8 °F 85% 30.02 in 10.0 mi NNW 18.4 mph 24.2 mph N/A   Mostly Cloudy
1:35 PM 10.4 °F -7.2 °F 6.8 °F 85% 30.03 in 10.0 mi NNW 17.3 mph 26.5 mph N/A Snow Light Snow
1:55 PM 10.4 °F -6.6 °F 6.8 °F 85% 30.03 in 10.0 mi NNW 16.1 mph 24.2 mph N/A   Mostly Cloudy
2:15 PM 10.4 °F -4.1 °F 6.8 °F 85% 30.03 in 10.0 mi NNW 11.5 mph 19.6 mph N/A   Partly Cloudy
2:35 PM 10.4 °F -4.8 °F 6.8 °F 85% 30.03 in 10.0 mi NNW 12.7 mph - N/A   Clear
2:55 PM 10.4 °F -5.4 °F 6.8 °F 85% 30.05 in 10.0 mi NNW 13.8 mph - N/A   Partly Cloudy
3:15 PM 10.4 °F -6.6 °F 6.8 °F 85% 30.06 in 10.0 mi NNW 16.1 mph 21.9 mph N/A   Partly Cloudy
3:35 PM 10.4 °F -7.2 °F 5.0 °F 79% 30.07 in 10.0 mi NNW 17.3 mph - N/A   Partly Cloudy
3:55 PM 10.4 °F -4.8 °F 5.0 °F 79% 30.08 in 10.0 mi NNW 12.7 mph 20.7 mph N/A   Scattered Clouds
4:15 PM 8.6 °F -7.7 °F 5.0 °F 85% 30.09 in 10.0 mi NNW 13.8 mph 19.6 mph N/A   Scattered Clouds
4:35 PM 8.6 °F -7.7 °F 5.0 °F 85% 30.11 in 10.0 mi NNW 13.8 mph 21.9 mph N/A   Partly Cloudy
4:55 PM 8.6 °F -7.7 °F 5.0 °F 85% 30.13 in 10.0 mi NNW 13.8 mph 19.6 mph N/A   Partly Cloudy
5:15 PM 8.6 °F -8.3 °F 5.0 °F 85% 30.14 in 10.0 mi NNW 15.0 mph 19.6 mph N/A   Clear
5:35 PM 8.6 °F -8.3 °F 5.0 °F 85% 30.15 in 10.0 mi NNW 15.0 mph 19.6 mph N/A   Clear
5:55 PM 6.8 °F -9.3 °F 3.2 °F 85% 30.16 in 10.0 mi NNW 12.7 mph 20.7 mph N/A   Clear
6:15 PM 6.8 °F -9.3 °F 5.0 °F 92% 30.17 in 10.0 mi NNW 12.7 mph 19.6 mph N/A   Clear
6:35 PM 6.8 °F -10.7 °F 5.0 °F 92% 30.18 in 10.0 mi NNW 15.0 mph 23.0 mph N/A   Clear
6:55 PM 6.8 °F -10.0 °F 3.2 °F 85% 30.19 in 10.0 mi NNW 13.8 mph 20.7 mph N/A   Partly Cloudy
7:15 PM 6.8 °F -10.0 °F 3.2 °F 85% 30.20 in 10.0 mi NNW 13.8 mph 19.6 mph N/A   Clear
7:35 PM 6.8 °F -9.3 °F 3.2 °F 85% 30.21 in 10.0 mi NNW 12.7 mph 18.4 mph N/A   Clear
7:55 PM 6.8 °F -8.6 °F 3.2 °F 85% 30.20 in 10.0 mi NNW 11.5 mph 16.1 mph N/A   Clear
8:15 PM 6.8 °F -8.6 °F 3.2 °F 85% 30.21 in 10.0 mi NW 11.5 mph 16.1 mph N/A   Clear
8:35 PM 6.8 °F -7.8 °F 3.2 °F 85% 30.21 in 10.0 mi NW 10.4 mph - N/A   Clear
8:55 PM 6.8 °F -7.8 °F 3.2 °F 85% 30.21 in 10.0 mi NNW 10.4 mph - N/A   Clear
9:15 PM 6.8 °F -7.8 °F 1.4 °F 79% 30.22 in 10.0 mi NW 10.4 mph - N/A   Clear
9:35 PM 6.8 °F -7.8 °F 1.4 °F 79% 30.22 in 10.0 mi NW 10.4 mph - N/A   Scattered Clouds
9:55 PM 5.0 °F -9.1 °F 1.4 °F 85% 30.23 in 10.0 mi NNW 9.2 mph - N/A   Partly Cloudy
10:15 PM 5.0 °F -8.1 °F 1.4 °F 85% 30.23 in 10.0 mi NW 8.1 mph - N/A   Scattered Clouds
10:35 PM 3.2 °F -11.3 °F -0.4 °F 85% 30.24 in 10.0 mi NW 9.2 mph - N/A   Overcast
10:55 PM 3.2 °F -10.3 °F -0.4 °F 85% 30.25 in 10.0 mi NW 8.1 mph - N/A   Overcast
11:15 PM 5.0 °F -6.9 °F -0.4 °F 78% 30.25 in 10.0 mi NW 6.9 mph - N/A   Overcast
11:35 PM 5.0 °F -6.9 °F 1.4 °F 85% 30.25 in 10.0 mi NW 6.9 mph - N/A   Overcast
11:55 PM 6.8 °F -5.9 °F 1.4 °F 79% 30.24 in 10.0 mi NW 8.1 mph - N/A   Overcast